User: anonymous   Login
Location: Unspecified
(0.0000°N, 0.0000°E)
Time: 01:05:26
(UTC+00:00)
Language:

NOAA 4 - Orbit

View from above orbital plane
View from above orbital plane
View from above satellite
View from above satellite

Ground track
Ground track

The orbit data is extracted from the following two-line orbital elements,

1  7529U 74089A   18015.91395411 -.00000041 +00000-0 +22180-4 0  9992
2  7529 101.6743 345.7671 0008980 330.4778 050.5218 12.53118200974449
Epoch (UTC): 15 January 2018 21:56:05
Eccentricity: 0.0008980
inclination: 101.6743°
perigee height: 1444 km
apogee height: 1458 km
right ascension of ascending node: 345.7671°
argument of perigee: 330.4778°
revolutions per day: 12.53118200
mean anomaly at epoch: 50.5218°
orbit number at epoch: 97444

The dashed part of the orbit path shows where the satellite is in the earth's shadow,  

DLR